Location: Ku?niki
(51.4449°N, 17.8974°E)
Time: 23:32:39
(UTC+00:00)

CREW DRAGON DEMO-1 DEB - Visible Passes

Search period start: 23 January 2021 00:00
Search period end: 02 February 2021 00:00
Orbit: 342 x 348 km, 51.6° (Epoch: 23 January)

Date Brightness Start Highest point End Pass type
(mag) Time Alt. Az. Time Alt. Az. Time Alt. Az.
23 Jan 5.0 17:16:56 10° W 17:19:16 22° SSW 17:20:53 14° S visible
24 Jan 3.9 16:05:27 10° W 16:08:14 43° SSW 16:11:00 10° SE visible
24 Jan 6.0 17:42:28 10° SW 17:42:49 10° SW 17:43:09 10° SW visible
25 Jan 5.2 16:29:34 10° W 16:31:53 22° SSW 16:34:11 10° SSE visible
26 Jan 6.3 16:55:14 10° SW 16:55:19 10° SW 16:55:24 10° SW visible
